Time,TemperatureF,DewpointF,PressureIn,WindDirection,WindDirectionDegrees,WindSpeedMPH,WindSpeedGustMPH,Humidity,HourlyPrecipIn,Conditions,Clouds,dailyrainin,SoftwareType,DateUTC
2013-05-22 00:01:00,52.0,52.0,-100.00,NE,45,3.0,9.0,98,0.00,,,0.00,,2013-05-22 00:01:00,
2013-05-22 00:11:00,52.0,52.0,-100.00,NNE,30,4.0,7.0,98,0.00,,,0.00,,2013-05-22 00:11:00,
2013-05-22 00:21:00,52.0,52.0,-100.00,NNE,30,4.0,9.0,98,0.00,,,0.00,,2013-05-22 00:21:00,
2013-05-22 00:32:00,52.0,52.0,-100.00,NE,40,4.0,11.0,98,0.00,,,0.00,,2013-05-22 00:32:00,
2013-05-22 01:32:00,51.0,50.0,-100.00,NE,40,4.0,7.0,98,0.00,,,0.00,,2013-05-22 01:32:00,
2013-05-22 01:41:00,51.0,50.0,-100.00,North,10,4.0,10.0,99,0.00,,,0.00,,2013-05-22 01:41:00,
2013-05-22 01:52:00,51.0,50.0,-100.00,NNE,25,6.0,11.0,99,0.00,,,0.00,,2013-05-22 01:52:00,
2013-05-22 02:01:00,50.0,50.0,-100.00,NNE,25,5.0,10.0,99,0.00,,,0.00,,2013-05-22 02:01:00,
2013-05-22 02:11:00,50.0,50.0,-100.00,North,10,4.0,9.0,99,0.00,,,0.00,,2013-05-22 02:11:00,
2013-05-22 02:21:00,50.0,50.0,-100.00,North,10,5.0,7.0,99,0.00,,,0.00,,2013-05-22 02:21:00,
2013-05-22 03:21:00,49.0,48.0,-100.00,North,10,6.0,12.0,99,0.00,,,0.00,,2013-05-22 03:21:00,
2013-05-22 03:33:00,49.0,48.0,-100.00,NE,35,3.0,7.0,99,0.00,,,0.00,,2013-05-22 03:33:00,
2013-05-22 03:43:00,49.0,48.0,-100.00,NNE,30,6.0,11.0,99,0.00,,,0.00,,2013-05-22 03:43:00,
2013-05-22 03:53:00,48.0,48.0,-100.00,North,5,5.0,11.0,99,0.00,,,0.00,,2013-05-22 03:53:00,
2013-05-22 04:03:00,49.0,48.0,-100.00,NE,40,3.0,7.0,99,0.00,,,0.00,,2013-05-22 04:03:00,
2013-05-22 04:13:00,49.0,48.0,-100.00,North,0,5.0,9.0,99,0.00,,,0.00,,2013-05-22 04:13:00,
2013-05-22 04:33:00,47.0,46.0,-100.00,NNE,20,5.0,12.0,99,0.00,,,0.00,,2013-05-22 04:33:00,
2013-05-22 04:43:00,47.0,46.0,-100.00,NE,40,4.0,10.0,99,0.00,,,0.00,,2013-05-22 04:43:00,
2013-05-22 04:52:00,47.0,46.0,-100.00,NNE,30,7.0,10.0,99,0.00,,,0.00,,2013-05-22 04:52:00,
2013-05-22 05:02:00,47.0,46.0,-100.00,NNE,20,6.0,11.0,99,0.00,,,0.00,,2013-05-22 05:02:00,
2013-05-22 05:11:00,47.0,46.0,-100.00,NE,35,4.0,12.0,99,0.00,,,0.00,,2013-05-22 05:11:00,
2013-05-22 05:21:00,47.0,46.0,-100.00,NNE,25,3.0,7.0,99,0.00,,,0.00,,2013-05-22 05:21:00,
2013-05-22 05:32:00,46.0,46.0,-100.00,NE,35,6.0,12.0,99,0.00,,,0.00,,2013-05-22 05:32:00,
2013-05-22 05:42:00,47.0,46.0,-100.00,NE,35,5.0,9.0,99,0.00,,,0.00,,2013-05-22 05:42:00,
2013-05-22 05:51:00,46.0,46.0,-100.00,NE,40,3.0,11.0,99,0.00,,,0.00,,2013-05-22 05:51:00,
2013-05-22 06:01:00,46.0,46.0,-100.00,North,10,4.0,11.0,99,0.00,,,0.00,,2013-05-22 06:01:00,
2013-05-22 06:11:00,46.0,46.0,-100.00,NNE,15,6.0,10.0,99,0.00,,,0.00,,2013-05-22 06:11:00,
2013-05-22 06:21:00,46.0,46.0,-100.00,NNE,20,5.0,9.0,99,0.00,,,0.00,,2013-05-22 06:21:00,
2013-05-22 06:32:00,46.0,46.0,-100.00,North,0,6.0,10.0,99,0.00,,,0.00,,2013-05-22 06:32:00,
2013-05-22 06:42:00,46.0,46.0,-100.00,NNE,15,4.0,8.0,99,0.00,,,0.00,,2013-05-22 06:42:00,
2013-05-22 08:22:00,45.0,45.0,-100.00,NNE,15,3.0,10.0,99,0.00,,,0.00,,2013-05-22 08:22:00,
2013-05-22 08:31:00,45.0,45.0,-100.00,NE,40,4.0,8.0,99,0.00,,,0.00,,2013-05-22 08:31:00,
2013-05-22 08:42:00,45.0,45.0,-100.00,North,10,6.0,10.0,99,0.00,,,0.00,,2013-05-22 08:42:00,
2013-05-22 09:01:00,45.0,45.0,-100.00,North,10,7.0,11.0,99,0.00,,,0.00,,2013-05-22 09:01:00,
2013-05-22 09:11:00,45.0,45.0,-100.00,NNE,15,3.0,11.0,99,0.00,,,0.00,,2013-05-22 09:11:00,
2013-05-22 09:21:00,45.0,45.0,-100.00,NNE,20,5.0,10.0,99,0.00,,,0.00,,2013-05-22 09:21:00,
2013-05-22 09:33:00,45.0,45.0,-100.00,NNE,30,3.0,9.0,99,0.00,,,0.00,,2013-05-22 09:33:00,
2013-05-22 10:22:00,45.0,45.0,-100.00,NNE,30,3.0,7.0,99,0.00,,,0.00,,2013-05-22 10:22:00,
2013-05-22 10:33:00,45.0,45.0,-100.00,NNE,15,6.0,9.0,99,0.00,,,0.00,,2013-05-22 10:33:00,
2013-05-22 10:42:00,45.0,45.0,-100.00,NNE,20,4.0,9.0,99,0.00,,,0.00,,2013-05-22 10:42:00,
2013-05-22 10:52:00,45.0,45.0,-100.00,NNE,15,3.0,7.0,99,0.00,,,0.00,,2013-05-22 10:52:00,
2013-05-22 11:02:00,45.0,45.0,-100.00,North,10,4.0,10.0,99,0.00,,,0.00,,2013-05-22 11:02:00,
2013-05-22 11:11:00,45.0,45.0,-100.00,NNE,25,6.0,9.0,99,0.00,,,0.00,,2013-05-22 11:11:00,
2013-05-22 11:21:00,45.0,45.0,-100.00,NNE,25,4.0,12.0,99,0.00,,,0.00,,2013-05-22 11:21:00,
2013-05-22 11:32:00,45.0,45.0,-100.00,NNE,30,6.0,11.0,99,0.00,,,0.00,,2013-05-22 11:32:00,
2013-05-22 11:41:00,45.0,45.0,-100.00,NNE,20,6.0,8.0,99,0.00,,,0.00,,2013-05-22 11:41:00,
2013-05-22 11:52:00,45.0,45.0,-100.00,NNE,25,4.0,9.0,99,0.00,,,0.00,,2013-05-22 11:52:00,
2013-05-22 12:02:00,45.0,45.0,-100.00,North,5,5.0,11.0,99,0.00,,,0.00,,2013-05-22 12:02:00,
2013-05-22 12:12:00,45.0,45.0,-100.00,NNE,15,5.0,11.0,99,0.00,,,0.00,,2013-05-22 12:12:00,
2013-05-22 12:22:00,45.0,45.0,-100.00,North,10,4.0,12.0,99,0.00,,,0.00,,2013-05-22 12:22:00,
2013-05-22 12:32:00,45.0,45.0,-100.00,North,10,6.0,7.0,99,0.00,,,0.00,,2013-05-22 12:32:00,
2013-05-22 12:42:00,45.0,45.0,-100.00,NNE,15,4.0,9.0,99,0.00,,,0.00,,2013-05-22 12:42:00,
2013-05-22 12:52:00,45.0,45.0,-100.00,NNE,20,6.0,9.0,99,0.00,,,0.00,,2013-05-22 12:52:00,
2013-05-22 13:01:00,45.0,45.0,-100.00,North,10,4.0,7.0,99,0.00,,,0.00,,2013-05-22 13:01:00,
2013-05-22 13:41:00,46.0,46.0,-100.00,NE,35,6.0,9.0,99,0.00,,,0.00,,2013-05-22 13:41:00,
2013-05-22 13:52:00,46.0,46.0,-100.00,NNE,30,7.0,11.0,99,0.00,,,0.00,,2013-05-22 13:52:00,
2013-05-22 14:02:00,46.0,46.0,-100.00,NNE,25,5.0,11.0,99,0.00,,,0.00,,2013-05-22 14:02:00,
2013-05-22 14:11:00,47.0,46.0,-100.00,NNE,25,6.0,11.0,99,0.00,,,0.00,,2013-05-22 14:11:00,
2013-05-22 14:21:00,47.0,46.0,-100.00,NE,40,4.0,9.0,99,0.00,,,0.00,,2013-05-22 14:21:00,
2013-05-22 14:32:00,47.0,46.0,-100.00,NNE,15,6.0,12.0,99,0.00,,,0.00,,2013-05-22 14:32:00,
2013-05-22 14:41:00,47.0,46.0,-100.00,NE,50,7.0,15.0,99,0.00,,,0.00,,2013-05-22 14:41:00,
2013-05-22 15:42:00,48.0,46.0,-100.00,NNE,30,7.0,14.0,97,0.00,,,0.00,,2013-05-22 15:42:00,
2013-05-22 15:53:00,48.0,46.0,-100.00,NNE,30,6.0,15.0,97,0.00,,,0.00,,2013-05-22 15:53:00,
2013-05-22 16:12:00,48.0,46.0,-100.00,North,0,6.0,12.0,97,0.00,,,0.00,,2013-05-22 16:12:00,
2013-05-22 16:32:00,48.0,48.0,-100.00,North,0,4.0,12.0,97,0.00,,,0.00,,2013-05-22 16:32:00,
2013-05-22 16:42:00,49.0,48.0,-100.00,North,5,3.0,12.0,97,0.00,,,0.00,,2013-05-22 16:42:00,
2013-05-22 17:02:00,49.0,48.0,-100.00,NNE,15,6.0,11.0,97,0.00,,,0.00,,2013-05-22 17:02:00,
2013-05-22 17:11:00,49.0,48.0,-100.00,NNE,20,5.0,8.0,97,0.00,,,0.00,,2013-05-22 17:11:00,
2013-05-22 17:22:00,49.0,48.0,-100.00,NNE,20,4.0,12.0,97,0.00,,,0.00,,2013-05-22 17:22:00,
2013-05-22 17:53:00,50.0,50.0,-100.00,NNE,25,7.0,13.0,97,0.00,,,0.00,,2013-05-22 17:53:00,
2013-05-22 18:02:00,50.0,50.0,-100.00,North,0,4.0,12.0,97,0.00,,,0.00,,2013-05-22 18:02:00,
2013-05-22 18:14:00,50.0,50.0,-100.00,NNE,25,5.0,12.0,97,0.00,,,0.00,,2013-05-22 18:14:00,
2013-05-22 18:22:00,51.0,50.0,-100.00,NNE,30,4.0,11.0,97,0.00,,,0.00,,2013-05-22 18:22:00,
2013-05-22 18:33:00,51.0,50.0,-100.00,North,0,7.0,12.0,96,0.00,,,0.00,,2013-05-22 18:33:00,
2013-05-22 18:42:00,51.0,50.0,-100.00,NNE,15,5.0,14.0,95,0.00,,,0.00,,2013-05-22 18:42:00,
2013-05-22 18:52:00,51.0,50.0,-100.00,NNE,25,7.0,13.0,94,0.00,,,0.00,,2013-05-22 18:52:00,
2013-05-22 19:02:00,51.0,50.0,-100.00,NNE,20,6.0,14.0,94,0.00,,,0.00,,2013-05-22 19:02:00,
2013-05-22 19:11:00,51.0,50.0,-100.00,NNE,15,5.0,11.0,94,0.00,,,0.00,,2013-05-22 19:11:00,
2013-05-22 19:21:00,51.0,50.0,-100.00,NNE,15,6.0,14.0,94,0.00,,,0.00,,2013-05-22 19:21:00,
2013-05-22 19:32:00,51.0,50.0,-100.00,NNE,15,6.0,15.0,93,0.00,,,0.00,,2013-05-22 19:32:00,
2013-05-22 19:42:00,52.0,50.0,-100.00,NNE,25,7.0,14.0,92,0.00,,,0.00,,2013-05-22 19:42:00,
2013-05-22 19:52:00,52.0,50.0,-100.00,NNE,20,7.0,14.0,92,0.00,,,0.00,,2013-05-22 19:52:00,
2013-05-22 20:02:00,52.0,50.0,-100.00,North,0,6.0,15.0,91,0.00,,,0.00,,2013-05-22 20:02:00,
2013-05-22 20:11:00,52.0,50.0,-100.00,NNE,15,10.0,17.0,91,0.00,,,0.00,,2013-05-22 20:11:00,
2013-05-22 20:21:00,52.0,50.0,-100.00,NNE,15,7.0,18.0,91,0.00,,,0.00,,2013-05-22 20:21:00,
2013-05-22 20:32:00,52.0,50.0,-100.00,NNE,15,7.0,17.0,91,0.00,,,0.00,,2013-05-22 20:32:00,
2013-05-22 20:42:00,52.0,50.0,-100.00,NNE,25,7.0,16.0,91,0.00,,,0.00,,2013-05-22 20:42:00,
2013-05-22 20:51:00,52.0,50.0,-100.00,North,0,7.0,18.0,91,0.00,,,0.00,,2013-05-22 20:51:00,
2013-05-22 21:01:00,52.0,50.0,-100.00,NE,35,9.0,12.0,91,0.00,,,0.00,,2013-05-22 21:01:00,
2013-05-22 21:11:00,52.0,50.0,-100.00,NNE,15,9.0,15.0,90,0.00,,,0.00,,2013-05-22 21:11:00,
2013-05-22 21:21:00,52.0,48.0,-100.00,NNE,15,4.0,15.0,88,0.00,,,0.00,,2013-05-22 21:21:00,
2013-05-22 21:32:00,52.0,50.0,-100.00,North,0,7.0,12.0,88,0.00,,,0.00,,2013-05-22 21:32:00,
2013-05-22 21:42:00,52.0,48.0,-100.00,NNE,15,7.0,19.0,88,0.00,,,0.00,,2013-05-22 21:42:00,
2013-05-22 21:52:00,52.0,48.0,-100.00,North,5,7.0,20.0,88,0.00,,,0.00,,2013-05-22 21:52:00,
2013-05-22 22:03:00,52.0,48.0,-100.00,North,0,7.0,17.0,88,0.00,,,0.00,,2013-05-22 22:03:00,
2013-05-22 22:12:00,52.0,48.0,-100.00,NNE,25,10.0,18.0,87,0.00,,,0.00,,2013-05-22 22:12:00,
2013-05-22 22:22:00,52.0,48.0,-100.00,NNE,20,8.0,15.0,86,0.00,,,0.00,,2013-05-22 22:22:00,
2013-05-22 22:33:00,52.0,48.0,-100.00,NE,35,10.0,17.0,85,0.00,,,0.00,,2013-05-22 22:33:00,
2013-05-22 22:42:00,52.0,48.0,-100.00,NNE,25,7.0,15.0,85,0.00,,,0.00,,2013-05-22 22:42:00,
2013-05-22 22:52:00,52.0,48.0,-100.00,NNE,30,7.0,16.0,85,0.00,,,0.00,,2013-05-22 22:52:00,
2013-05-22 23:02:00,52.0,48.0,-100.00,NNE,25,12.0,20.0,85,0.00,,,0.00,,2013-05-22 23:02:00,
2013-05-22 23:12:00,52.0,48.0,-100.00,NNE,15,9.0,17.0,85,0.00,,,0.00,,2013-05-22 23:12:00,
2013-05-22 23:21:00,52.0,48.0,-100.00,NNE,15,9.0,21.0,86,0.00,,,0.00,,2013-05-22 23:21:00,
2013-05-22 23:32:00,51.0,48.0,-100.00,North,10,7.0,23.0,86,0.00,,,0.00,,2013-05-22 23:32:00,
2013-05-22 23:42:00,51.0,48.0,-100.00,NE,40,9.0,19.0,86,0.00,,,0.00,,2013-05-22 23:42:00,
2013-05-22 23:52:00,51.0,48.0,-100.00,NNE,30,12.0,21.0,86,0.00,,,0.00,,2013-05-22 23:52:00,